FENGYUN 1C DEB, 32094

Orbit data source: Space-Track

FENGYUN 1C DEB, 32094 is space debris in SSO originally from a launch on Mon, 10 May 1999 UTC launched from the Taiyaun Space Center, China (TSC). Fengyun 1C debris stems from the Chinese weather satellite Fengyun-1C, which was intentionally destroyed by a Chinese anti-satellite missile in 2007. This event dramatically increased the amount of space debris, with thousands of trackable fragments posing hazards to satellites and human spaceflight. The Fengyun 1C debris cloud has become a focal point in discussions about space sustainability and the need for international regulations to prevent the creation of new debris.

Loading next visibility...
Identifier
32094, 1999-025CQL
Orbit
SSO
Country
Flag of CNCN / PRC
Related business
Manufacturer
Unknown
Mission
Spacecraft
Bus & Motor
Unknown
Mass
Unknown
Launch date (UTC)
1999-05-10 (27 years ago)
Launch vehicle
Unknown
Launch site
Taiyaun Space Center, China (TSC)
Object type
Payload
Rocket body
Debris
Shape & HBR
Unknown shape, 0.1 m
Radar Cross Section
Small (<0.1 m²)

Expand to show TLE details & history
Last TLE update: 3 days ago

TLE from 3 days ago
0 FENGYUN 1C DEB
1 32094U 99025CQL 26060.42556736  .00000719  00000-0  42263-3 0  9992
2 32094  98.7524  53.7555 0035872  46.3004 314.1129 14.10849789954748
Epoch: 2026-03-01T10:12Z
TLE epoch observation values (Epoch: 2026-03-01T10:12:49.019Z)
Latitude
-0.0001°
Longitude
101.31776°
Altitude
841.346 km
Speed
7.441 km/s
True Right ascension
03h 35m 01s
True Declination
0° 00' 00"
Sunlit
Object was in daylight at epoch
Visualization orbit readout
Latitude
Unknown
Longitude
Unknown
Altitude
Unknown
Speed
Unknown
Apparent Right ascension
Unknown
Apparent Declination
Unknown
Sunlit
N/A
Visualization observer readout
Local Sidereal Time
13:58:58
Azimuth
Unknown
Elevation
Unknown
Doppler factor
Unknown
Orbital elements
Apogee altitude
879.58 km
Perigee altitude
827.696 km
Semi-major axis
7,231.775 km
Eccentricity
0.00359
Inclination
98.7524°
RAAN
53.7555°
Arg. of periapsis
46.3004°
True anomaly
313.81685°
Mean anomaly
314.1129°
Eccentric anomaly
313.96497°
Mean motion
3.5292 °/min
Orbital period
102.01 mins
BSTAR
0.00042263
Loading maneuver chart data...
Computing Atmospheric mass density...
Loading historical data...
Loading historical data...
Loading historical data...
Loading historical data...
Loading historical data...
Loading historical data...
Loading historical data...

Documentation

Showing up to 5 results
|